Time,TemperatureF,DewpointF,PressureIn,WindDirection,WindDirectionDegrees,WindSpeedMPH,WindSpeedGustMPH,Humidity,HourlyPrecipIn,Conditions,Clouds,dailyrainin,SolarRadiationWatts/m^2,SoftwareType,DateUTC
2013-04-07 00:22:00,39.0,37.0,-100.00,WNW,297,4.0,9.0,93,0.00,,,0.07,0.000000,,2013-04-07 08:22:00,
2013-04-07 00:32:00,39.0,37.0,-100.00,WNW,297,4.0,9.0,93,0.00,,,0.07,0.000000,,2013-04-07 08:32:00,
2013-04-07 00:42:00,39.0,37.0,-100.00,WNW,297,4.0,9.0,93,0.00,,,0.07,0.000000,,2013-04-07 08:42:00,
2013-04-07 00:52:00,39.0,37.0,-100.00,WNW,297,4.0,9.0,93,0.00,,,0.07,0.000000,,2013-04-07 08:52:00,
2013-04-07 01:22:00,38.0,37.0,-100.00,WNW,291,3.0,10.0,98,0.00,,,0.05,0.000000,,2013-04-07 09:22:00,
2013-04-07 01:33:00,38.0,37.0,-100.00,WNW,291,3.0,10.0,98,0.00,,,0.05,0.000000,,2013-04-07 09:33:00,
2013-04-07 01:43:00,38.0,37.0,-100.00,WNW,291,3.0,10.0,98,0.00,,,0.05,0.000000,,2013-04-07 09:43:00,
2013-04-07 01:53:00,38.0,37.0,-100.00,WNW,291,3.0,10.0,98,0.00,,,0.05,0.000000,,2013-04-07 09:53:00,
2013-04-07 02:22:00,38.0,38.0,-100.00,WNW,282,3.0,6.0,100,0.00,,,0.04,0.000000,,2013-04-07 10:22:00,
2013-04-07 02:33:00,38.0,38.0,-100.00,WNW,282,3.0,6.0,100,0.00,,,0.04,0.000000,,2013-04-07 10:33:00,
2013-04-07 02:42:00,38.0,38.0,-100.00,WNW,282,3.0,6.0,100,0.00,,,0.04,0.000000,,2013-04-07 10:42:00,
2013-04-07 02:52:00,38.0,38.0,-100.00,WNW,282,3.0,6.0,100,0.00,,,0.04,0.000000,,2013-04-07 10:52:00,
2013-04-07 03:22:00,38.0,38.0,-100.00,SSW,211,2.0,5.0,99,0.00,,,0.04,0.000000,,2013-04-07 11:22:00,
2013-04-07 03:32:00,38.0,38.0,-100.00,SSW,211,2.0,5.0,99,0.00,,,0.04,0.000000,,2013-04-07 11:32:00,
2013-04-07 03:42:00,38.0,38.0,-100.00,SSW,211,2.0,5.0,99,0.00,,,0.04,0.000000,,2013-04-07 11:42:00,
2013-04-07 03:52:00,38.0,38.0,-100.00,SSW,211,2.0,5.0,99,0.00,,,0.04,0.000000,,2013-04-07 11:52:00,
2013-04-07 04:22:00,38.0,38.0,-100.00,SSW,211,3.0,5.0,100,0.00,,,0.04,0.000000,,2013-04-07 12:22:00,
2013-04-07 04:33:00,38.0,38.0,-100.00,SSW,211,3.0,5.0,100,0.00,,,0.04,0.000000,,2013-04-07 12:33:00,
2013-04-07 04:42:00,38.0,38.0,-100.00,SSW,211,3.0,5.0,100,0.00,,,0.04,0.000000,,2013-04-07 12:42:00,
2013-04-07 04:52:00,38.0,38.0,-100.00,SSW,211,3.0,5.0,100,0.00,,,0.04,0.000000,,2013-04-07 12:52:00,
2013-04-07 05:22:00,38.0,38.0,-100.00,NE,51,0.0,4.0,99,0.00,,,0.04,0.000000,,2013-04-07 13:22:00,
2013-04-07 05:32:00,38.0,38.0,-100.00,NE,51,0.0,4.0,99,0.00,,,0.04,0.000000,,2013-04-07 13:32:00,
2013-04-07 05:42:00,38.0,38.0,-100.00,NE,51,0.0,4.0,99,0.00,,,0.04,0.000000,,2013-04-07 13:42:00,
2013-04-07 05:52:00,38.0,38.0,-100.00,NE,51,0.0,4.0,99,0.00,,,0.04,0.000000,,2013-04-07 13:52:00,
2013-04-07 06:23:00,38.0,38.0,-100.00,NE,51,2.0,4.0,100,0.00,,,0.04,0.000000,,2013-04-07 14:23:00,
2013-04-07 06:32:00,38.0,38.0,-100.00,NE,51,2.0,4.0,100,0.00,,,0.04,0.000000,,2013-04-07 14:32:00,
2013-04-07 06:43:00,38.0,38.0,-100.00,NE,51,2.0,4.0,100,0.00,,,0.04,0.000000,,2013-04-07 14:43:00,
2013-04-07 06:53:00,38.0,38.0,-100.00,NE,51,2.0,4.0,100,0.00,,,0.04,0.000000,,2013-04-07 14:53:00,
2013-04-07 07:22:00,37.0,37.0,-100.00,ENE,64,2.0,4.0,100,0.00,,,0.04,15.000000,,2013-04-07 15:22:00,
2013-04-07 07:33:00,37.0,37.0,-100.00,ENE,64,2.0,4.0,100,0.00,,,0.04,15.000000,,2013-04-07 15:33:00,
2013-04-07 07:43:00,37.0,37.0,-100.00,ENE,64,2.0,4.0,100,0.00,,,0.04,15.000000,,2013-04-07 15:43:00,
2013-04-07 07:53:00,37.0,37.0,-100.00,ENE,64,2.0,4.0,100,0.00,,,0.04,15.000000,,2013-04-07 15:53:00,
2013-04-07 08:24:00,42.0,42.0,-100.00,NE,39,0.0,2.0,100,0.00,,,0.04,107.000000,,2013-04-07 16:24:00,
2013-04-07 09:22:00,44.0,41.0,-100.00,North,352,1.0,4.0,88,-99.99,,,0.03,236.000000,,2013-04-07 17:22:00,
2013-04-07 09:32:00,44.0,41.0,-100.00,North,352,1.0,4.0,88,-99.99,,,0.03,236.000000,,2013-04-07 17:32:00,
2013-04-07 09:42:00,44.0,41.0,-100.00,North,352,1.0,4.0,88,-99.99,,,0.03,236.000000,,2013-04-07 17:42:00,
2013-04-07 09:52:00,44.0,41.0,-100.00,North,352,1.0,4.0,88,-99.99,,,0.03,236.000000,,2013-04-07 17:52:00,
2013-04-07 10:22:00,46.0,41.0,-100.00,NNE,32,4.0,8.0,83,0.00,,,0.03,381.000000,,2013-04-07 18:22:00,
2013-04-07 10:32:00,46.0,41.0,-100.00,NNE,32,4.0,8.0,83,0.00,,,0.03,381.000000,,2013-04-07 18:32:00,
2013-04-07 10:42:00,46.0,41.0,-100.00,NNE,32,4.0,8.0,83,0.00,,,0.03,381.000000,,2013-04-07 18:42:00,
2013-04-07 10:52:00,46.0,41.0,-100.00,NNE,32,4.0,8.0,83,0.00,,,0.03,381.000000,,2013-04-07 18:52:00,
2013-04-07 11:22:00,46.0,40.0,-100.00,NNE,18,5.0,9.0,78,0.00,,,0.03,459.000000,,2013-04-07 19:22:00,
2013-04-07 11:32:00,46.0,40.0,-100.00,NNE,18,5.0,9.0,78,0.00,,,0.03,459.000000,,2013-04-07 19:32:00,
2013-04-07 11:42:00,46.0,40.0,-100.00,NNE,18,5.0,9.0,78,0.00,,,0.03,459.000000,,2013-04-07 19:42:00,
2013-04-07 11:52:00,46.0,40.0,-100.00,NNE,18,5.0,9.0,78,0.00,,,0.03,459.000000,,2013-04-07 19:52:00,
2013-04-07 12:22:00,49.0,39.0,-100.00,NNE,26,7.0,11.0,68,0.00,,,0.03,706.000000,,2013-04-07 20:22:00,
2013-04-07 12:32:00,49.0,39.0,-100.00,NNE,26,7.0,11.0,68,0.00,,,0.03,706.000000,,2013-04-07 20:32:00,
2013-04-07 12:42:00,49.0,39.0,-100.00,NNE,26,7.0,11.0,68,0.00,,,0.03,706.000000,,2013-04-07 20:42:00,
2013-04-07 12:52:00,49.0,39.0,-100.00,NNE,26,7.0,11.0,68,0.00,,,0.03,706.000000,,2013-04-07 20:52:00,
2013-04-07 13:22:00,48.0,40.0,-100.00,NNE,29,6.0,10.0,73,0.00,,,0.03,506.000000,,2013-04-07 21:22:00,
2013-04-07 13:33:00,48.0,40.0,-100.00,NNE,29,6.0,10.0,73,0.00,,,0.03,506.000000,,2013-04-07 21:33:00,
2013-04-07 13:43:00,48.0,40.0,-100.00,NNE,29,6.0,10.0,73,0.00,,,0.03,506.000000,,2013-04-07 21:43:00,
2013-04-07 13:53:00,48.0,40.0,-100.00,NNE,29,6.0,10.0,73,0.00,,,0.03,506.000000,,2013-04-07 21:53:00,
2013-04-07 14:23:00,51.0,40.0,-100.00,NNE,17,7.0,10.0,65,0.00,,,0.03,801.000000,,2013-04-07 22:23:00,
2013-04-07 14:33:00,51.0,40.0,-100.00,NNE,17,7.0,10.0,65,0.00,,,0.03,801.000000,,2013-04-07 22:33:00,
2013-04-07 14:43:00,51.0,40.0,-100.00,NNE,17,7.0,10.0,65,0.00,,,0.03,801.000000,,2013-04-07 22:43:00,
2013-04-07 14:52:00,51.0,40.0,-100.00,NNE,17,7.0,10.0,65,0.00,,,0.03,801.000000,,2013-04-07 22:52:00,
2013-04-07 15:22:00,53.0,40.0,-100.00,North,11,7.0,12.0,62,0.00,,,0.03,769.000000,,2013-04-07 23:22:00,
2013-04-07 15:32:00,53.0,40.0,-100.00,North,11,7.0,12.0,62,0.00,,,0.03,769.000000,,2013-04-07 23:32:00,
2013-04-07 15:42:00,53.0,40.0,-100.00,North,11,7.0,12.0,62,0.00,,,0.03,769.000000,,2013-04-07 23:42:00,
2013-04-07 15:52:00,53.0,40.0,-100.00,North,11,7.0,12.0,62,0.00,,,0.03,769.000000,,2013-04-07 23:52:00,
2013-04-07 16:22:00,52.0,39.0,-100.00,ENE,73,4.0,12.0,62,0.00,,,0.03,416.000000,,2013-04-08 00:22:00,
2013-04-07 16:32:00,52.0,39.0,-100.00,ENE,73,4.0,12.0,62,0.00,,,0.03,416.000000,,2013-04-08 00:32:00,
2013-04-07 16:42:00,52.0,39.0,-100.00,ENE,73,4.0,12.0,62,0.00,,,0.03,416.000000,,2013-04-08 00:42:00,
2013-04-07 16:52:00,52.0,39.0,-100.00,ENE,73,4.0,12.0,62,0.00,,,0.03,416.000000,,2013-04-08 00:52:00,
2013-04-07 17:22:00,54.0,40.0,-100.00,ESE,103,5.0,10.0,59,0.00,,,0.01,432.000000,,2013-04-08 01:22:00,
2013-04-07 17:33:00,54.0,40.0,-100.00,ESE,103,5.0,10.0,59,0.00,,,0.01,432.000000,,2013-04-08 01:33:00,
2013-04-07 17:43:00,54.0,40.0,-100.00,ESE,103,5.0,10.0,59,0.00,,,0.01,432.000000,,2013-04-08 01:43:00,
2013-04-07 17:53:00,54.0,40.0,-100.00,ESE,103,5.0,10.0,59,0.00,,,0.01,432.000000,,2013-04-08 01:53:00,
2013-04-07 18:22:00,51.0,36.0,-100.00,ENE,68,4.0,9.0,57,0.00,,,0.00,219.000000,,2013-04-08 02:22:00,
2013-04-07 18:33:00,51.0,36.0,-100.00,ENE,68,4.0,9.0,57,0.00,,,0.00,219.000000,,2013-04-08 02:33:00,
2013-04-07 18:45:00,51.0,36.0,-100.00,ENE,68,4.0,9.0,57,0.00,,,0.00,219.000000,,2013-04-08 02:45:00,
2013-04-07 18:52:00,51.0,36.0,-100.00,ENE,68,4.0,9.0,57,0.00,,,0.00,219.000000,,2013-04-08 02:52:00,
2013-04-07 19:23:00,49.0,37.0,-100.00,East,90,2.0,6.0,64,0.00,,,0.00,90.000000,,2013-04-08 03:23:00,
2013-04-07 19:33:00,49.0,37.0,-100.00,East,90,2.0,6.0,64,0.00,,,0.00,90.000000,,2013-04-08 03:33:00,
2013-04-07 19:46:00,49.0,37.0,-100.00,East,90,2.0,6.0,64,0.00,,,0.00,90.000000,,2013-04-08 03:46:00,
2013-04-07 19:53:00,49.0,37.0,-100.00,East,90,2.0,6.0,64,0.00,,,0.00,90.000000,,2013-04-08 03:53:00,
2013-04-07 20:23:00,43.0,36.0,-100.00,North,9,3.0,5.0,77,0.00,,,0.00,25.000000,,2013-04-08 04:23:00,
2013-04-07 20:33:00,43.0,36.0,-100.00,North,9,3.0,5.0,77,0.00,,,0.00,25.000000,,2013-04-08 04:33:00,
2013-04-07 20:43:00,43.0,36.0,-100.00,North,9,3.0,5.0,77,0.00,,,0.00,25.000000,,2013-04-08 04:43:00,
2013-04-07 20:52:00,43.0,36.0,-100.00,North,9,3.0,5.0,77,0.00,,,0.00,25.000000,,2013-04-08 04:52:00,
2013-04-07 21:32:00,40.0,36.0,-100.00,NW,313,1.0,3.0,85,0.00,,,0.00,0.000000,,2013-04-08 05:32:00,
2013-04-07 21:42:00,40.0,36.0,-100.00,NW,313,1.0,3.0,85,0.00,,,0.00,0.000000,,2013-04-08 05:42:00,
2013-04-07 21:51:00,40.0,36.0,-100.00,NW,313,1.0,3.0,85,0.00,,,0.00,0.000000,,2013-04-08 05:51:00,
2013-04-07 22:22:00,37.0,35.0,-100.00,NE,35,1.0,4.0,92,0.00,,,0.00,0.000000,,2013-04-08 06:22:00,
2013-04-07 22:32:00,37.0,35.0,-100.00,NE,35,1.0,4.0,92,0.00,,,0.00,0.000000,,2013-04-08 06:32:00,
2013-04-07 22:42:00,37.0,35.0,-100.00,NE,35,1.0,4.0,92,0.00,,,0.00,0.000000,,2013-04-08 06:42:00,
2013-04-07 22:52:00,37.0,35.0,-100.00,NE,35,1.0,4.0,92,0.00,,,0.00,0.000000,,2013-04-08 06:52:00,
2013-04-07 23:22:00,36.0,35.0,-100.00,WSW,258,1.0,4.0,97,0.00,,,0.00,0.000000,,2013-04-08 07:22:00,
2013-04-07 23:32:00,36.0,35.0,-100.00,WSW,258,1.0,4.0,97,0.00,,,0.00,0.000000,,2013-04-08 07:32:00,
2013-04-07 23:42:00,36.0,35.0,-100.00,WSW,258,1.0,4.0,97,0.00,,,0.00,0.000000,,2013-04-08 07:42:00,
2013-04-07 23:52:00,36.0,35.0,-100.00,WSW,258,1.0,4.0,97,0.00,,,0.00,0.000000,,2013-04-08 07:52:00,